Page, AZ

6:23 AM MDT on June 23, 2018 (GMT -0600)
Page Municipal

Weather History for KPGA - October, 2017

Change the Weather History Date:

Friday, October 13, 2017

  Actual Average Record
Temperature  
Mean Temperature 63 °F -  
Max Temperature 78 °F 71 °F 86 °F (1959)
Min Temperature 48 °F 48 °F 33 °F (1969)
Degree Days  
Heating Degree Days 2    
Growing Degree Days 13 (Base 50)    
Moisture  
Dew Point 19 °F    
Average Humidity 17    
Maximum Humidity 31    
Minimum Humidity 5    
Precipitation  
Precipitation 0.00 in - - ()
Sea Level Pressure  
Sea Level Pressure 29.93 in    
Wind  
Wind Speed 3 mph (North)    
Max Wind Speed 10 mph    
Max Gust Speed 17 mph    
Visibility 10 miles    
Events      
Averages and records for this station are not official NWS values.
T = Trace of Precipitation, MM = Missing Value Source: NWS Daily Summary

Daily Weather History Graph

Daily Weather History Graph

Search for Another Location

Airport or City:

Astronomy

Oct. 13, 2017 Rise Set
Actual Time 6:31 AM MST 5:51 PM MST
Civil Twilight 6:05 AM MST 6:17 PM MST
Nautical Twilight 5:35 AM MST 6:47 PM MST
Astronomical Twilight 5:05 AM MST 7:17 PM MST
Moon 12:08 AM MST (10/13) 2:29 PM MST (10/13)
Length of Visible Light 12h 11m
Length of Day
11h 19m
Last Quarter, 36% of the Moon is Illuminated
Oct 13
Last Quarter
Oct 19
New
Oct 27
First Quarter
Nov 3
Full
Nov 10
Last Quarter

Hourly Weather History & Observations

Time (MST) Temp. Dew Point Humidity Pressure Visibility Wind Dir Wind Speed Gust Speed Precip Events Conditions
12:53 AM 57.0 °F 19.9 °F 24% 29.92 in 10.0 mi Calm Calm - N/A   Clear
1:53 AM 55.0 °F 19.9 °F 25% 29.93 in 10.0 mi Calm Calm - N/A   Clear
2:53 AM 52.0 °F 21.9 °F 31% 29.93 in 10.0 mi Calm Calm - N/A   Clear
3:53 AM 54.0 °F 19.9 °F 26% 29.93 in 10.0 mi SE 3.5 mph - N/A   Clear
4:53 AM 55.0 °F 19.0 °F 24% 29.95 in 10.0 mi NW 3.5 mph - N/A   Clear
5:53 AM 50.0 °F 18.0 °F 28% 29.98 in 10.0 mi SE 4.6 mph - N/A   Clear
6:53 AM 48.9 °F 18.0 °F 29% 30.00 in 10.0 mi SE 8.1 mph - N/A   Clear
7:53 AM 54.0 °F 18.0 °F 24% 30.01 in 10.0 mi SE 8.1 mph - N/A   Clear
8:53 AM 57.9 °F 21.0 °F 24% 30.02 in 10.0 mi ESE 3.5 mph - N/A   Clear
9:53 AM 63.0 °F 21.0 °F 20% 30.01 in 10.0 mi North 4.6 mph - N/A   Clear
10:53 AM 64.0 °F 19.0 °F 18% 29.99 in 10.0 mi North 4.6 mph - N/A   Clear
11:53 AM 69.1 °F 21.0 °F 16% 29.97 in 10.0 mi North 6.9 mph - N/A   Clear
12:53 PM 70.0 °F 19.0 °F 14% 29.92 in 10.0 mi North 6.9 mph - N/A   Clear
1:53 PM 73.9 °F 19.9 °F 13% 29.89 in 10.0 mi Calm Calm - N/A   Clear
2:53 PM 75.0 °F 21.0 °F 13% 29.87 in 10.0 mi ENE 3.5 mph - N/A   Clear
3:53 PM 77.0 °F 19.0 °F 11% 29.84 in 10.0 mi SSE 4.6 mph - N/A   Clear
4:53 PM 75.9 °F 19.0 °F 12% 29.83 in 10.0 mi NE 3.5 mph - N/A   Clear
5:53 PM 69.1 °F 24.1 °F 18% 29.86 in 10.0 mi Calm Calm - N/A   Clear
6:53 PM 64.9 °F 23.0 °F 20% 29.89 in 10.0 mi Calm Calm - N/A   Clear
7:53 PM 71.1 °F 14.0 °F 11% 29.88 in 10.0 mi West 6.9 mph - N/A   Clear
8:53 PM 69.1 °F 12.9 °F 11% 29.89 in 10.0 mi West 6.9 mph - N/A   Clear
9:53 PM 66.9 °F 14.0 °F 13% 29.90 in 10.0 mi WNW 5.8 mph - N/A   Clear
10:53 PM 69.1 °F 15.1 °F 13% 29.91 in 10.0 mi West 8.1 mph 17.3 mph N/A   Clear
11:53 PM 66.9 °F 16.0 °F 14% 29.90 in 10.0 mi West 10.4 mph - N/A   Clear